Location: Brantley
(31.5822°N, 86.2569°W)
Time: 02:02:47
(UTC+00:00)

Courier 1B Rocket - Pass Details

Date: 21 February 2026
Orbit: 920 x 1201 km, 28.2° (Epoch: 13 March)

Event Time Altitude Azimuth Distance (km) Brightness Sun altitude
Rises 04:34:10 0° 272° (W) 3,602 - -61.3°
Reaches altitude 10° 04:36:59 10° 263° (W) 2,686 - -61.7°
Maximum altitude 04:42:43 34° 201° (SSW) 1,589 - -62.6°
Drops below altitude 10° 04:48:49 10° 139° (SE) 2,850 - -63.5°
Sets 04:51:53 0° 130° (SE) 3,851 - -63.9°
